Other Surface Observations
Issued by NWS Charleston, SC

Current Version | Previous Version | Text Only | Print | Product List | Glossary On
Versions: 1 2 3 4 5 6 7 8 9 10 11 12 13 14 15 16 17 18 19 20 21 22 23 24 25 26 27 28 29 30 31 32 33 34 35 36 37 38 39 40 41 42 43 44 45 46 47 48 49 50
000
SXUS52 KCHS 300311
OSOCHS

MARINE OBSERVATIONS
NATIONAL WEATHER SERVICE CHARLESTON SC
1100 PM EDT SUN MAR 29 2015

...DOWNTOWN CHARLESTON AND HARBOR...

CITY           SKY/WX    TMP DP  RH WIND       PRES   REMARKS
WATERFRONT PRK   N/A     50 N/A N/A S9          N/A
FORT JOHNSON   NOT AVBL

...LAKE MOULTRIE...

CITY           SKY/WX    TMP DP  RH WIND       PRES   REMARKS
PINOPOLIS        N/A     46  34  61 VRB3      30.26F

...LAKE AND SUPPLEMENTAL COASTAL OBSERVATIONS...

STATION/POSITION TIME  TEMP    WIND        PRES    WAVE   SWELL
                       AIR SEA DIR/SP/G            HT/PER HT/PER/DIR
                 (UTC) (F)     (DEG/KT/KT) (MB)    (FT/S) (FT/S/D)
FORT PULASKI     0200   49 61  150/  4/  5 1028.3F
SAPELO ISLAND    0200   48     130/  5     1028.0S
UPR LAKE MARION  NOT AVBL
WINYAH BAY       NOT AVBL
LAKE MURRAY      0200   53     170/ 11/ 12 1025.1R
ACE BASIN NERRS  NOT AVBL


...C-MAN AND BUOY OBSERVATIONS...

STATION/POSITION TIME  TEMP    WIND        PRES    WAVE   SWELL
                       AIR SEA DIR/SP/G            HT/PER HT/PER/DIR
                 (UTC) (F)     (DEG/KT/KT) (MB)    (FT/S) (FT/S/D)
BUOY 41004       0250   54 68   90/  6/  8 1027.4F   3/ 8   3/ 8
BUOY 41008       0250   55 60  150/ 12/ 14 1027.8F   3/ 7   2/ 60/ 7
FOLLY BEACH CMAN 0300   53     180/ 13/ 15 1027.2F
CAPERS NS BUOY   NOT AVBL
FRIPP NS BUOY    0200   53     170/ 12/ 14 1027.0F
5E ST. MARYS GA  0221      60                N/A     3/ 6


STATION/POSITION TIME  TEMP    WIND        PRES    WAVE   SWELL
                       AIR SEA DIR/SP/G            HT/PER HT/PER/DIR
                 (UTC) (F)     (DEG/KT/KT) (MB)    (FT/S) (FT/S/D)
FRYING PAN BUOY  0250   49 65  220/  4/  6 1028.0F   3/ 6   2/ 50/ 6
BUOY 41025       NOT AVBL
CAPE LOOKOUT NC  0300   45     240/  4/  5 1026.1F
BUOY 41002       0250   53 68   10/ 14/ 16 1027.7F   6/ 9   5/ 10/ 9
BUOY 41010       0220   64 75   40/ 14/ 17 1026.9R
ST AUGUSTINE FL  0300   56 60   60/ 10/ 11 1028.7F

$$



USA.gov is the U.S. government's official web portal to all federal, state and local government web resources and services.